SB KEPS @ AMSAT $ORB12117.O Orbital Elements 12117.OSCAR
HR AMSAT ORBITAL ELEMENTS FOR OSCAR SATELLITES FROM WA5QGD FORT WORTH,TX April 26, 2012 Send SUBSCRIBE KEPS/UNSUBSCRIBE KEPS to [email protected] only BID: ORB12117.O TO ALL RADIO AMATEURS BT
Satellite: AO-07 Catalog number: 07530 Epoch time: 12116.63330756 Element set: 365 Inclination: 101.4016 deg RA of node: 115.8750 deg Eccentricity: 0.0012042 Arg of perigee: 026.8081 deg Mean anomaly: 333.3607 deg Mean motion: 12.53588925 rev/day Decay rate: -2.7e-07 rev/day^2 Epoch rev: 71346 Checksum: 269
Satellite: FO-29 Catalog number: 24278 Epoch time: 12116.90282700 Element set: 826 Inclination: 098.5816 deg RA of node: 224.4066 deg Eccentricity: 0.0350742 Arg of perigee: 164.5498 deg Mean anomaly: 196.6683 deg Mean motion: 13.52981591 rev/day Decay rate: -1.6e-07 rev/day^2 Epoch rev: 77488 Checksum: 344
Satellite: SO-33 Catalog number: 25509 Epoch time: 12116.72585965 Element set: 0217 Inclination: 031.4313 deg RA of node: 270.5612 deg Eccentricity: 0.0352104 Arg of perigee: 104.3041 deg Mean anomaly: 259.6945 deg Mean motion: 14.28711113 rev/day Decay rate: 1.000e-05 rev/day^2 Epoch rev: 70514 Checksum: 257
Satellite: RS-22 Catalog number: 27939 Epoch time: 12117.53237128 Element set: 299 Inclination: 097.8159 deg RA of node: 320.9897 deg Eccentricity: 0.0014611 Arg of perigee: 070.2422 deg Mean anomaly: 290.0379 deg Mean motion: 14.63984371 rev/day Decay rate: 9.61e-06 rev/day^2 Epoch rev: 45832 Checksum: 328
Satellite: VO-52 Catalog number: 28650 Epoch time: 12116.69337969 Element set: 0086 Inclination: 097.6014 deg RA of node: 150.2079 deg Eccentricity: 0.0025817 Arg of perigee: 211.3009 deg Mean anomaly: 148.6666 deg Mean motion: 14.82845489 rev/day Decay rate: 1.614e-05 rev/day^2 Epoch rev: 37719 Checksum: 333
Satellite: HO-68 Catalog number: 36122 Epoch time: 12117.60641447 Element set: 410 Inclination: 100.3657 deg RA of node: 177.9830 deg Eccentricity: 0.0007199 Arg of perigee: 225.2134 deg Mean anomaly: 134.8403 deg Mean motion: 13.16294719 rev/day Decay rate: -4.4e-07 rev/day^2 Epoch rev: 11360 Checksum: 276
/EX SB KEPS @ AMSAT $ORB12117.D Orbital Elements 12117.MICROS
HR AMSAT ORBITAL ELEMENTS FOR THE MICROSATS FROM WA5QGD FORT WORTH,TX April 26, 2012 Send SUBSCRIBE KEPS/UNSUBSCRIBE KEPS to [email protected] only BID: ORB12117.D TO ALL RADIO AMATEURS BT
Satellite: UO-11 Catalog number: 14781 Epoch time: 12116.73937543 Element set: 0868 Inclination: 097.9564 deg RA of node: 176.7074 deg Eccentricity: 0.0008615 Arg of perigee: 196.0341 deg Mean anomaly: 164.0599 deg Mean motion: 14.80396535 rev/day Decay rate: 9.69e-06 rev/day^2 Epoch rev: 51217 Checksum: 341
Satellite: AO-16 Catalog number: 20439 Epoch time: 12117.45344259 Element set: 451 Inclination: 098.4262 deg RA of node: 062.2862 deg Eccentricity: 0.0010580 Arg of perigee: 317.8849 deg Mean anomaly: 042.1520 deg Mean motion: 14.32041532 rev/day Decay rate: 1.89e-06 rev/day^2 Epoch rev: 16259 Checksum: 284
Satellite: LO-19 Catalog number: 20442 Epoch time: 12116.92542465 Element set: 0378 Inclination: 098.3918 deg RA of node: 064.9638 deg Eccentricity: 0.0011178 Arg of perigee: 309.5087 deg Mean anomaly: 050.5101 deg Mean motion: 14.32260851 rev/day Decay rate: 2.26e-06 rev/day^2 Epoch rev: 16270 Checksum: 292
Satellite: AO-27 Catalog number: 22825 Epoch time: 12116.74854087 Element set: 0088 Inclination: 098.5712 deg RA of node: 060.3906 deg Eccentricity: 0.0009294 Arg of perigee: 075.0086 deg Mean anomaly: 285.2136 deg Mean motion: 14.29450013 rev/day Decay rate: 1.60e-06 rev/day^2 Epoch rev: 96898 Checksum: 317
Satellite: IO-26 Catalog number: 22826 Epoch time: 12117.52926530 Element set: 838 Inclination: 098.5656 deg RA of node: 061.5419 deg Eccentricity: 0.0009930 Arg of perigee: 067.0274 deg Mean anomaly: 293.1955 deg Mean motion: 14.29722807 rev/day Decay rate: 1.60e-06 rev/day^2 Epoch rev: 96922 Checksum: 324
Satellite: GO-32 Catalog number: 25397 Epoch time: 12117.51574373 Element set: 760 Inclination: 098.3585 deg RA of node: 098.7798 deg Eccentricity: 0.0002242 Arg of perigee: 081.2523 deg Mean anomaly: 278.8914 deg Mean motion: 14.23269297 rev/day Decay rate: -4.4e-07 rev/day^2 Epoch rev: 71667 Checksum: 339
Satellite: NO-44 Catalog number: 26931 Epoch time: 12116.71778447 Element set: 25 Inclination: 067.0531 deg RA of node: 255.5680 deg Eccentricity: 0.0007267 Arg of perigee: 271.5718 deg Mean anomaly: 088.4518 deg Mean motion: 14.29785751 rev/day Decay rate: 5.7e-07 rev/day^2 Epoch rev: 55174 Checksum: 326
Satellite: SO-50 Catalog number: 27607 Epoch time: 12116.93822111 Element set: 0747 Inclination: 064.5570 deg RA of node: 093.8328 deg Eccentricity: 0.0084538 Arg of perigee: 258.8865 deg Mean anomaly: 100.2722 deg Mean motion: 14.72327870 rev/day Decay rate: 1.245e-05 rev/day^2 Epoch rev: 50227 Checksum: 305
Satellite: CO-55 Catalog number: 27844 Epoch time: 12116.60568102 Element set: 359 Inclination: 098.7022 deg RA of node: 125.7509 deg Eccentricity: 0.0010167 Arg of perigee: 019.5653 deg Mean anomaly: 340.5923 deg Mean motion: 14.20999258 rev/day Decay rate: 4.5e-07 rev/day^2 Epoch rev: 45742 Checksum: 309
Satellite: CO-57 Catalog number: 27848 Epoch time: 12117.58612896 Element set: 311 Inclination: 098.7098 deg RA of node: 126.0261 deg Eccentricity: 0.0010115 Arg of perigee: 022.9774 deg Mean anomaly: 337.1799 deg Mean motion: 14.20752758 rev/day Decay rate: -4.26e-06 rev/day^2 Epoch rev: 45750 Checksum: 325
Satellite: AO-51 Catalog number: 28375 Epoch time: 12117.48647370 Element set: 250 Inclination: 098.1424 deg RA of node: 085.1826 deg Eccentricity: 0.0082720 Arg of perigee: 197.2092 deg Mean anomaly: 162.6290 deg Mean motion: 14.40929921 rev/day Decay rate: 1.51e-06 rev/day^2 Epoch rev: 41132 Checksum: 291
Satellite: CP3 Catalog number: 31129 Epoch time: 12117.50478980 Element set: 150 Inclination: 097.8809 deg RA of node: 128.3228 deg Eccentricity: 0.0099936 Arg of perigee: 284.2082 deg Mean anomaly: 074.7992 deg Mean motion: 14.53010617 rev/day Decay rate: 1.083e-05 rev/day^2 Epoch rev: 26647 Checksum: 318
Satellite: CO-65 Catalog number: 32785 Epoch time: 12116.68113357 Element set: 0291 Inclination: 097.8032 deg RA of node: 178.9670 deg Eccentricity: 0.0013781 Arg of perigee: 230.8448 deg Mean anomaly: 129.1578 deg Mean motion: 14.82860282 rev/day Decay rate: 2.395e-05 rev/day^2 Epoch rev: 21598 Checksum: 336
Satellite: PRISM Catalog number: 33493 Epoch time: 12117.53661323 Element set: 641 Inclination: 098.1651 deg RA of node: 256.9035 deg Eccentricity: 0.0020231 Arg of perigee: 104.5785 deg Mean anomaly: 255.7662 deg Mean motion: 14.83632462 rev/day Decay rate: 5.244e-05 rev/day^2 Epoch rev: 17609 Checksum: 290
Satellite: SOHLA-1 Catalog number: 33496 Epoch time: 12116.96286712 Element set: 0712 Inclination: 098.0988 deg RA of node: 229.0605 deg Eccentricity: 0.0006264 Arg of perigee: 198.6622 deg Mean anomaly: 161.4353 deg Mean motion: 14.69931153 rev/day Decay rate: 7.92e-06 rev/day^2 Epoch rev: 17457 Checksum: 323
Satellite: SO-67 Catalog number: 35870 Epoch time: 12117.63518998 Element set: 900 Inclination: 097.2371 deg RA of node: 155.1978 deg Eccentricity: 0.0002502 Arg of perigee: 041.5619 deg Mean anomaly: 104.6273 deg Mean motion: 15.23396140 rev/day Decay rate: 6.823e-05 rev/day^2 Epoch rev: 14476 Checksum: 313
Satellite: TISAT-1 Catalog number: 36799 Epoch time: 12117.48296665 Element set: 917 Inclination: 098.0627 deg RA of node: 193.4413 deg Eccentricity: 0.0014262 Arg of perigee: 345.5234 deg Mean anomaly: 014.5561 deg Mean motion: 14.81778660 rev/day Decay rate: 2.889e-05 rev/day^2 Epoch rev: 9683 Checksum: 340
Satellite: STUDSAT Catalog number: 36801 Epoch time: 12116.88604707 Element set: 0384 Inclination: 098.0701 deg RA of node: 193.3343 deg Eccentricity: 0.0012088 Arg of perigee: 333.0420 deg Mean anomaly: 027.0167 deg Mean motion: 14.83806143 rev/day Decay rate: 7.940e-05 rev/day^2 Epoch rev: 09676 Checksum: 286
Satellite: FO-69 Catalog number: 37227 Epoch time: 12116.07696006 Element set: 0165 Inclination: 071.9704 deg RA of node: 069.1498 deg Eccentricity: 0.0015334 Arg of perigee: 055.8878 deg Mean anomaly: 304.3681 deg Mean motion: 14.77015651 rev/day Decay rate: 6.70e-06 rev/day^2 Epoch rev: 02825 Checksum: 317
Satellite: FO-70 Catalog number: 37380 Epoch time: 12116.07361532 Element set: 0168 Inclination: 071.9737 deg RA of node: 069.6461 deg Eccentricity: 0.0016000 Arg of perigee: 053.0808 deg Mean anomaly: 307.1778 deg Mean motion: 14.76769587 rev/day Decay rate: 6.92e-06 rev/day^2 Epoch rev: 02814 Checksum: 313
Satellite: ALMASAT-1 Catalog number: 38078 Epoch time: 12116.92190876 Element set: 0155 Inclination: 069.4901 deg RA of node: 075.5191 deg Eccentricity: 0.0766176 Arg of perigee: 313.9962 deg Mean anomaly: 040.0303 deg Mean motion: 14.07650383 rev/day Decay rate: 3.8758e-04 rev/day^2 Epoch rev: 01019 Checksum: 311
Satellite: XATCOBEO Catalog number: 38082 Epoch time: 12117.28752276 Element set: 190 Inclination: 069.4927 deg RA of node: 073.9787 deg Eccentricity: 0.0752826 Arg of perigee: 313.1460 deg Mean anomaly: 040.8996 deg Mean motion: 14.12583278 rev/day Decay rate: 8.3834e-04 rev/day^2 Epoch rev: 1025 Checksum: 326
/EX SB KEPS @ AMSAT $ORB12117.W Orbital Elements 12117.WEATHER
HR AMSAT ORBITAL ELEMENTS FOR WEATHER SATELLITES FROM WA5QGD FORT WORTH,TX April 26, 2012 Send SUBSCRIBE KEPS/UNSUBSCRIBE KEPS to [email protected] only BID: ORB12117.W TO ALL RADIO AMATEURS BT
Satellite: NOAA-10 Catalog number: 16969 Epoch time: 12116.94328019 Element set: 0906 Inclination: 098.5843 deg RA of node: 146.9146 deg Eccentricity: 0.0012827 Arg of perigee: 031.1969 deg Mean anomaly: 328.9971 deg Mean motion: 14.27543808 rev/day Decay rate: 2.8e-07 rev/day^2 Epoch rev: 33241 Checksum: 326
